Powrót do katalogu

CZ-3C DEB

AktywnyGTO
NORAD 39342·DEBRIS·🇨🇳 China

Wystrzelony Oct 31, 2010 z Xichang Satellite Launch Center

Loading…

TLE

Starzejące sięSource: Space-Track

Epoka: Sep 14, 2026, 11:56 UTC

1 39342U 10057G   26257.49788089 -.00000046  00000-0  10359-2 0  9990
2 39342  20.4152  69.5625 7193472 215.5289  43.0157  2.20688506104186

Śledź CZ-3C DEB w czasie rzeczywistym z AllMySat

Download on the App Store